Location: Unspecified
(0.0000°N, 0.0000°E)
Time: 11:28:10
(UTC+00:00)

AO-85 - Visible Passes

Search period start: 15 December 2019 00:00
Search period end: 25 December 2019 00:00
Orbit: 516 x 767 km, 64.8° (Epoch: 12 December)

Date Brightness Start Highest point End Pass type
(mag) Time Alt. Az. Time Alt. Az. Time Alt. Az.
15 Dec ? 04:12:26 28° NNE 04:13:42 36° ENE 04:17:29 10° SE visible
16 Dec ? 04:37:11 41° WNW 04:38:09 52° WSW 04:42:12 10° S visible
17 Dec ? 03:24:15 15° E 03:24:15 15° E 03:25:33 10° ESE visible
17 Dec ? 05:01:54 13° W 05:02:43 14° WSW 05:04:57 10° SSW visible
18 Dec ? 03:48:54 31° SSE 03:48:54 31° SSE 03:51:10 10° SSE visible
19 Dec ? 04:13:28 18° SSW 04:13:28 18° SSW 04:15:01 10° S visible
